Time,TemperatureF,DewpointF,PressureIn,WindDirection,WindDirectionDegrees,WindSpeedMPH,WindSpeedGustMPH,Humidity,HourlyPrecipIn,Conditions,Clouds,dailyrainin,SoftwareType,DateUTC
2013-08-06 00:02:00,87.4,65.3,29.63,North,0,0.0,0.0,48,0.00,CLR,,0.00,WeatherDisplay:10.37,2013-08-06 05:02:00,
2013-08-06 00:07:00,87.4,65.9,29.63,North,0,0.0,0.0,49,0.00,CLR,,0.00,WeatherDisplay:10.37,2013-08-06 05:07:00,
2013-08-06 00:12:00,87.1,65.6,29.63,North,0,0.0,0.0,49,0.00,CLR,,0.00,WeatherDisplay:10.37,2013-08-06 05:12:00,
2013-08-06 00:17:00,86.9,65.4,29.63,North,0,0.0,0.0,49,0.00,CLR,,0.00,WeatherDisplay:10.37,2013-08-06 05:17:00,
2013-08-06 00:22:00,86.7,65.3,29.63,North,0,0.0,0.0,49,0.00,CLR,,0.00,WeatherDisplay:10.37,2013-08-06 05:22:00,
2013-08-06 00:27:00,86.5,65.7,29.63,North,0,0.0,0.0,50,0.00,CLR,,0.00,WeatherDisplay:10.37,2013-08-06 05:27:00,
2013-08-06 00:32:00,86.4,65.5,29.64,North,0,0.0,0.0,50,0.00,CLR,,0.00,WeatherDisplay:10.37,2013-08-06 05:32:00,
2013-08-06 00:37:00,86.2,65.4,29.63,North,0,0.0,0.0,50,0.00,CLR,,0.00,WeatherDisplay:10.37,2013-08-06 05:37:00,
2013-08-06 00:42:00,86.2,65.4,29.63,North,0,0.0,0.0,50,0.00,CLR,,0.00,WeatherDisplay:10.37,2013-08-06 05:42:00,
2013-08-06 00:47:00,86.0,65.8,29.63,North,0,0.0,0.0,51,0.00,CLR,,0.00,WeatherDisplay:10.37,2013-08-06 05:47:00,
2013-08-06 00:52:00,85.8,65.6,29.63,North,0,0.0,0.0,51,0.00,CLR,,0.00,WeatherDisplay:10.37,2013-08-06 05:52:00,
2013-08-06 00:57:00,85.5,65.8,29.63,North,0,0.0,0.0,52,0.00,CLR,,0.00,WeatherDisplay:10.37,2013-08-06 05:57:00,
2013-08-06 01:02:00,85.1,65.5,29.63,North,0,0.0,0.0,52,0.00,CLR,,0.00,WeatherDisplay:10.37,2013-08-06 06:02:00,
2013-08-06 01:07:00,84.9,65.9,29.63,North,0,0.0,0.0,53,0.00,CLR,,0.00,WeatherDisplay:10.37,2013-08-06 06:07:00,
2013-08-06 01:12:00,84.9,65.9,29.63,North,0,0.0,0.0,53,0.00,CLR,,0.00,WeatherDisplay:10.37,2013-08-06 06:12:00,
2013-08-06 01:17:00,84.9,65.9,29.63,North,0,0.0,0.0,53,0.00,CLR,,0.00,WeatherDisplay:10.37,2013-08-06 06:17:00,
2013-08-06 01:23:00,85.1,66.0,29.63,North,0,0.0,0.0,53,0.00,CLR,,0.00,WeatherDisplay:10.37,2013-08-06 06:23:00,
2013-08-06 01:28:00,85.3,66.2,29.64,North,0,0.0,0.0,53,0.00,CLR,,0.00,WeatherDisplay:10.37,2013-08-06 06:28:00,
2013-08-06 01:33:00,85.1,66.0,29.64,North,0,0.0,0.0,53,0.00,CLR,,0.00,WeatherDisplay:10.37,2013-08-06 06:33:00,
2013-08-06 01:38:00,85.1,66.0,29.64,North,0,0.0,0.0,53,0.00,CLR,,0.00,WeatherDisplay:10.37,2013-08-06 06:38:00,
2013-08-06 01:43:00,85.1,66.0,29.65,North,0,0.0,0.0,53,0.00,CLR,,0.00,WeatherDisplay:10.37,2013-08-06 06:43:00,
2013-08-06 01:48:00,84.9,65.9,29.65,North,0,0.0,0.0,53,0.00,CLR,,0.00,WeatherDisplay:10.37,2013-08-06 06:48:00,
2013-08-06 01:53:00,84.9,66.4,29.65,North,0,0.0,0.0,54,0.00,CLR,,0.00,WeatherDisplay:10.37,2013-08-06 06:53:00,
2013-08-06 01:58:00,84.7,66.3,29.65,North,0,0.0,0.0,54,0.00,CLR,,0.00,WeatherDisplay:10.37,2013-08-06 06:58:00,
2013-08-06 02:03:00,84.7,66.8,29.64,North,0,0.0,0.0,55,0.00,CLR,,0.00,WeatherDisplay:10.37,2013-08-06 07:03:00,
2013-08-06 02:08:00,84.4,66.4,29.64,North,0,0.0,0.0,55,0.00,CLR,,0.00,WeatherDisplay:10.37,2013-08-06 07:08:00,
2013-08-06 02:13:00,84.2,66.3,29.63,North,0,0.0,0.0,55,0.00,CLR,,0.00,WeatherDisplay:10.37,2013-08-06 07:13:00,
2013-08-06 02:18:00,84.2,66.3,29.63,North,0,0.0,0.0,55,0.00,CLR,,0.00,WeatherDisplay:10.37,2013-08-06 07:18:00,
2013-08-06 02:23:00,84.0,66.1,29.63,North,0,0.0,0.0,55,0.00,CLR,,0.00,WeatherDisplay:10.37,2013-08-06 07:23:00,
2013-08-06 02:28:00,83.8,65.4,29.64,North,0,0.0,0.0,54,0.00,CLR,,0.00,WeatherDisplay:10.37,2013-08-06 07:28:00,
2013-08-06 02:33:00,83.7,65.8,29.64,North,0,0.0,0.0,55,0.00,CLR,,0.00,WeatherDisplay:10.37,2013-08-06 07:33:00,
2013-08-06 02:38:00,83.5,66.6,29.64,North,0,0.0,0.0,57,0.00,CLR,,0.00,WeatherDisplay:10.37,2013-08-06 07:38:00,
2013-08-06 02:43:00,83.5,66.6,29.64,North,0,0.0,0.0,57,0.00,CLR,,0.00,WeatherDisplay:10.37,2013-08-06 07:43:00,
2013-08-06 02:48:00,83.5,66.6,29.63,North,0,0.0,0.0,57,0.00,CLR,,0.00,WeatherDisplay:10.37,2013-08-06 07:48:00,
2013-08-06 02:53:00,83.3,66.5,29.64,North,0,0.0,0.0,57,0.00,CLR,,0.00,WeatherDisplay:10.37,2013-08-06 07:53:00,
2013-08-06 02:58:00,83.1,66.8,29.63,North,0,0.0,0.0,58,0.00,CLR,,0.00,WeatherDisplay:10.37,2013-08-06 07:58:00,
2013-08-06 03:03:00,83.1,66.8,29.63,North,0,0.0,0.0,58,0.00,CLR,,0.00,WeatherDisplay:10.37,2013-08-06 08:03:00,
2013-08-06 03:08:00,83.1,66.8,29.63,North,0,0.0,0.0,58,0.00,CLR,,0.00,WeatherDisplay:10.37,2013-08-06 08:08:00,
2013-08-06 03:13:00,82.9,66.6,29.63,North,0,0.0,0.0,58,0.00,CLR,,0.00,WeatherDisplay:10.37,2013-08-06 08:13:00,
2013-08-06 03:18:00,82.9,66.6,29.63,North,0,0.0,0.0,58,0.00,CLR,,0.00,WeatherDisplay:10.37,2013-08-06 08:18:00,
2013-08-06 03:23:00,82.8,67.0,29.63,North,0,0.0,0.0,59,0.00,CLR,,0.00,WeatherDisplay:10.37,2013-08-06 08:23:00,
2013-08-06 03:28:00,82.8,67.5,29.63,North,0,0.0,0.0,60,0.00,CLR,,0.00,WeatherDisplay:10.37,2013-08-06 08:28:00,
2013-08-06 03:33:00,82.8,67.9,29.63,North,0,0.0,0.0,61,0.00,CLR,,0.00,WeatherDisplay:10.37,2013-08-06 08:33:00,
2013-08-06 03:38:00,82.8,67.9,29.63,North,0,0.0,0.0,61,0.00,CLR,,0.00,WeatherDisplay:10.37,2013-08-06 08:38:00,
2013-08-06 03:43:00,82.8,67.9,29.63,North,0,0.0,0.0,61,0.00,CLR,,0.00,WeatherDisplay:10.37,2013-08-06 08:43:00,
2013-08-06 03:48:00,82.6,67.8,29.63,North,0,0.0,0.0,61,0.00,CLR,,0.00,WeatherDisplay:10.37,2013-08-06 08:48:00,
2013-08-06 03:53:00,82.6,68.2,29.63,North,0,0.0,0.0,62,0.00,CLR,,0.00,WeatherDisplay:10.37,2013-08-06 08:53:00,
2013-08-06 03:58:00,82.4,67.6,29.63,North,0,0.0,0.0,61,0.00,CLR,,0.00,WeatherDisplay:10.37,2013-08-06 08:58:00,
2013-08-06 04:03:00,82.4,68.1,29.63,North,0,0.0,0.0,62,0.00,CLR,,0.00,WeatherDisplay:10.37,2013-08-06 09:03:00,
2013-08-06 04:08:00,82.2,67.9,29.63,North,0,0.0,0.0,62,0.00,CLR,,0.00,WeatherDisplay:10.37,2013-08-06 09:08:00,
2013-08-06 04:13:00,82.2,67.9,29.63,North,0,0.0,0.0,62,0.00,CLR,,0.00,WeatherDisplay:10.37,2013-08-06 09:13:00,
2013-08-06 04:18:00,82.0,68.2,29.63,North,0,0.0,0.0,63,0.00,CLR,,0.00,WeatherDisplay:10.37,2013-08-06 09:18:00,
2013-08-06 04:23:00,81.9,68.5,29.62,North,0,0.0,0.0,64,0.00,CLR,,0.00,WeatherDisplay:10.37,2013-08-06 09:23:00,
2013-08-06 04:28:00,81.9,68.5,29.63,North,0,0.0,0.0,64,0.00,CLR,,0.00,WeatherDisplay:10.37,2013-08-06 09:28:00,
2013-08-06 04:33:00,81.9,68.5,29.63,North,0,0.0,0.0,64,0.00,CLR,,0.00,WeatherDisplay:10.37,2013-08-06 09:33:00,
2013-08-06 04:38:00,81.9,68.9,29.63,North,0,0.0,0.0,65,0.00,CLR,,0.00,WeatherDisplay:10.37,2013-08-06 09:38:00,
2013-08-06 04:43:00,81.7,68.8,29.63,North,0,0.0,0.0,65,0.00,CLR,,0.00,WeatherDisplay:10.37,2013-08-06 09:43:00,
2013-08-06 04:48:00,81.7,68.8,29.62,North,0,0.0,0.0,65,0.00,CLR,,0.00,WeatherDisplay:10.37,2013-08-06 09:48:00,
2013-08-06 04:53:00,81.7,68.8,29.63,North,0,0.0,0.0,65,0.00,CLR,,0.00,WeatherDisplay:10.37,2013-08-06 09:53:00,
2013-08-06 04:58:00,81.5,68.6,29.62,North,0,0.0,0.0,65,0.00,CLR,,0.00,WeatherDisplay:10.37,2013-08-06 09:58:00,
2013-08-06 05:03:00,81.3,68.9,29.62,North,0,0.0,0.0,66,0.00,CLR,,0.00,WeatherDisplay:10.37,2013-08-06 10:03:00,
2013-08-06 05:08:00,81.3,68.9,29.63,North,0,0.0,0.0,66,0.00,CLR,,0.00,WeatherDisplay:10.37,2013-08-06 10:08:00,
2013-08-06 05:13:00,81.1,68.7,29.62,North,0,0.0,0.0,66,0.00,CLR,,0.00,WeatherDisplay:10.37,2013-08-06 10:13:00,
2013-08-06 05:18:00,81.0,68.5,29.62,North,0,0.0,0.0,66,0.00,CLR,,0.00,WeatherDisplay:10.37,2013-08-06 10:18:00,
2013-08-06 05:23:00,81.0,68.5,29.63,North,0,0.0,0.0,66,0.00,CLR,,0.00,WeatherDisplay:10.37,2013-08-06 10:23:00,
2013-08-06 05:28:00,80.8,68.4,29.63,North,0,0.0,0.0,66,0.00,CLR,,0.00,WeatherDisplay:10.37,2013-08-06 10:28:00,
2013-08-06 05:33:00,80.6,68.2,29.63,North,0,0.0,0.0,66,0.00,CLR,,0.00,WeatherDisplay:10.37,2013-08-06 10:33:00,
2013-08-06 05:38:00,80.4,68.5,29.63,North,0,0.0,0.0,67,0.00,CLR,,0.00,WeatherDisplay:10.37,2013-08-06 10:38:00,
2013-08-06 05:43:00,80.4,68.5,29.63,North,0,0.0,0.0,67,0.00,CLR,,0.00,WeatherDisplay:10.37,2013-08-06 10:43:00,
2013-08-06 05:44:00,80.2,68.3,29.63,North,0,0.0,0.0,67,0.00,CLR,,0.00,WeatherDisplay:10.37,2013-08-06 10:44:00,
2013-08-06 05:49:00,80.2,68.7,29.63,North,0,0.0,0.0,68,0.00,CLR,,0.00,WeatherDisplay:10.37,2013-08-06 10:49:00,
2013-08-06 05:54:00,80.1,68.5,29.63,North,0,0.0,0.0,68,0.00,CLR,,0.00,WeatherDisplay:10.37,2013-08-06 10:54:00,
2013-08-06 05:59:00,79.9,68.4,29.64,North,0,0.0,0.0,68,0.00,CLR,,0.00,WeatherDisplay:10.37,2013-08-06 10:59:00,
2013-08-06 06:04:00,79.9,68.4,29.64,North,0,0.0,0.0,68,0.00,CLR,,0.00,WeatherDisplay:10.37,2013-08-06 11:04:00,
2013-08-06 06:09:00,79.7,69.0,29.64,North,0,0.0,0.0,70,0.00,CLR,,0.00,WeatherDisplay:10.37,2013-08-06 11:09:00,
2013-08-06 06:14:00,79.7,68.6,29.63,North,0,0.0,0.0,69,0.00,CLR,,0.00,WeatherDisplay:10.37,2013-08-06 11:14:00,
2013-08-06 06:19:00,79.5,68.9,29.64,North,0,0.0,0.0,70,0.00,CLR,,0.00,WeatherDisplay:10.37,2013-08-06 11:19:00,
2013-08-06 06:24:00,79.5,68.9,29.64,North,0,0.0,0.0,70,0.00,CLR,,0.00,WeatherDisplay:10.37,2013-08-06 11:24:00,
2013-08-06 06:29:00,79.3,69.1,29.64,North,0,0.0,0.0,71,0.00,CLR,,0.00,WeatherDisplay:10.37,2013-08-06 11:29:00,
2013-08-06 06:34:00,79.2,68.9,29.64,North,0,0.0,0.0,71,0.00,CLR,,0.00,WeatherDisplay:10.37,2013-08-06 11:34:00,
2013-08-06 06:39:00,79.2,68.9,29.64,North,0,0.0,0.0,71,0.00,CLR,,0.00,WeatherDisplay:10.37,2013-08-06 11:39:00,
2013-08-06 06:44:00,79.2,68.9,29.64,North,0,0.0,0.0,71,0.00,CLR,,0.00,WeatherDisplay:10.37,2013-08-06 11:44:00,
2013-08-06 06:49:00,79.2,68.9,29.64,North,0,0.0,0.0,71,0.00,CLR,,0.00,WeatherDisplay:10.37,2013-08-06 11:49:00,
2013-08-06 06:54:00,79.0,68.8,29.64,North,0,0.0,0.0,71,0.00,CLR,,0.00,WeatherDisplay:10.37,2013-08-06 11:54:00,
2013-08-06 06:59:00,79.0,68.8,29.64,North,0,0.0,0.0,71,0.00,CLR,,0.00,WeatherDisplay:10.37,2013-08-06 11:59:00,
2013-08-06 07:04:00,79.0,68.8,29.64,North,0,0.0,0.0,71,0.00,CLR,,0.00,WeatherDisplay:10.37,2013-08-06 12:04:00,
2013-08-06 07:09:00,78.8,69.0,29.64,North,0,0.0,0.0,72,0.00,CLR,,0.00,WeatherDisplay:10.37,2013-08-06 12:09:00,
2013-08-06 07:14:00,78.8,69.0,29.64,North,0,0.0,0.0,72,0.00,CLR,,0.00,WeatherDisplay:10.37,2013-08-06 12:14:00,
2013-08-06 07:19:00,78.8,69.0,29.64,North,0,0.0,0.0,72,0.00,CLR,,0.00,WeatherDisplay:10.37,2013-08-06 12:19:00,
2013-08-06 07:24:00,79.0,69.2,29.64,North,0,0.0,0.0,72,0.00,CLR,,0.00,WeatherDisplay:10.37,2013-08-06 12:24:00,
2013-08-06 07:29:00,79.0,69.2,29.65,North,0,0.0,0.0,72,0.00,CLR,,0.00,WeatherDisplay:10.37,2013-08-06 12:29:00,
2013-08-06 07:34:00,79.2,69.4,29.65,North,0,0.0,0.0,72,0.00,CLR,,0.00,WeatherDisplay:10.37,2013-08-06 12:34:00,
2013-08-06 07:39:00,79.2,69.4,29.65,North,0,0.0,0.0,72,0.00,CLR,,0.00,WeatherDisplay:10.37,2013-08-06 12:39:00,
2013-08-06 07:44:00,79.2,69.4,29.65,North,0,0.0,0.0,72,0.00,CLR,,0.00,WeatherDisplay:10.37,2013-08-06 12:44:00,
2013-08-06 07:49:00,79.3,69.5,29.65,North,0,0.0,0.0,72,0.00,CLR,,0.00,WeatherDisplay:10.37,2013-08-06 12:49:00,
2013-08-06 07:54:00,79.5,69.7,29.65,North,0,0.0,0.0,72,0.00,CLR,,0.00,WeatherDisplay:10.37,2013-08-06 12:54:00,
2013-08-06 07:59:00,79.5,69.7,29.65,North,0,0.0,0.0,72,0.00,CLR,,0.00,WeatherDisplay:10.37,2013-08-06 12:59:00,
2013-08-06 08:04:00,79.7,69.9,29.65,North,0,0.0,0.0,72,0.00,CLR,,0.00,WeatherDisplay:10.37,2013-08-06 13:04:00,
2013-08-06 08:09:00,79.9,70.0,29.65,North,0,0.0,0.0,72,0.00,CLR,,0.00,WeatherDisplay:10.37,2013-08-06 13:09:00,
2013-08-06 08:14:00,79.9,69.6,29.66,North,0,0.0,0.0,71,0.00,CLR,,0.00,WeatherDisplay:10.37,2013-08-06 13:14:00,
2013-08-06 08:19:00,80.2,70.0,29.66,North,0,0.0,0.0,71,0.00,CLR,,0.00,WeatherDisplay:10.37,2013-08-06 13:19:00,
2013-08-06 08:24:00,80.2,70.0,29.66,North,0,0.0,0.0,71,0.00,CLR,,0.00,WeatherDisplay:10.37,2013-08-06 13:24:00,
2013-08-06 08:29:00,80.6,70.3,29.66,North,0,0.0,0.0,71,0.00,CLR,,0.00,WeatherDisplay:10.37,2013-08-06 13:29:00,
2013-08-06 08:34:00,80.8,70.5,29.66,North,0,0.0,0.0,71,0.00,CLR,,0.00,WeatherDisplay:10.37,2013-08-06 13:34:00,
2013-08-06 08:39:00,81.0,70.7,29.66,North,0,0.0,0.0,71,0.00,CLR,,0.00,WeatherDisplay:10.37,2013-08-06 13:39:00,
2013-08-06 08:44:00,81.1,70.4,29.66,North,0,0.0,0.0,70,0.00,CLR,,0.00,WeatherDisplay:10.37,2013-08-06 13:44:00,
2013-08-06 08:49:00,81.3,70.2,29.67,North,0,0.0,0.0,69,0.00,CLR,,0.00,WeatherDisplay:10.37,2013-08-06 13:49:00,
2013-08-06 08:54:00,81.7,70.5,29.67,North,0,0.0,0.0,69,0.00,CLR,,0.00,WeatherDisplay:10.37,2013-08-06 13:54:00,
2013-08-06 08:59:00,81.9,70.3,29.67,North,0,0.0,0.0,68,0.00,CLR,,0.00,WeatherDisplay:10.37,2013-08-06 13:59:00,
2013-08-06 09:04:00,82.2,70.6,29.67,North,0,0.0,0.0,68,0.00,CLR,,0.00,WeatherDisplay:10.37,2013-08-06 14:04:00,
2013-08-06 09:09:00,82.4,70.8,29.67,North,0,0.0,0.0,68,0.00,CLR,,0.00,WeatherDisplay:10.37,2013-08-06 14:09:00,
2013-08-06 09:14:00,82.4,70.8,29.67,North,0,0.0,0.0,68,0.00,CLR,,0.00,WeatherDisplay:10.37,2013-08-06 14:14:00,
2013-08-06 09:20:00,82.8,71.1,29.67,North,0,0.0,0.0,68,0.00,CLR,,0.00,WeatherDisplay:10.37,2013-08-06 14:20:00,
2013-08-06 09:25:00,83.1,71.0,29.67,North,0,0.0,0.0,67,0.00,CLR,,0.00,WeatherDisplay:10.37,2013-08-06 14:25:00,
2013-08-06 09:30:00,83.3,71.2,29.67,North,0,0.0,0.0,67,0.00,CLR,,0.00,WeatherDisplay:10.37,2013-08-06 14:30:00,
2013-08-06 09:35:00,83.7,71.1,29.67,North,0,0.0,0.0,66,0.00,CLR,,0.00,WeatherDisplay:10.37,2013-08-06 14:35:00,
2013-08-06 09:40:00,83.8,71.3,29.67,North,0,0.0,0.0,66,0.00,CLR,,0.00,WeatherDisplay:10.37,2013-08-06 14:40:00,
2013-08-06 09:45:00,84.2,71.2,29.67,North,0,0.0,0.0,65,0.00,CLR,,0.00,WeatherDisplay:10.37,2013-08-06 14:45:00,
2013-08-06 09:50:00,84.4,71.3,29.67,North,0,0.0,0.0,65,0.00,CLR,,0.00,WeatherDisplay:10.37,2013-08-06 14:50:00,
2013-08-06 09:55:00,84.7,70.7,29.67,North,0,0.0,0.0,63,0.00,CLR,,0.00,WeatherDisplay:10.37,2013-08-06 14:55:00,
2013-08-06 10:00:00,84.9,70.4,29.67,North,0,0.0,0.0,62,0.00,CLR,,0.00,WeatherDisplay:10.37,2013-08-06 15:00:00,
2013-08-06 10:05:00,85.3,70.8,29.67,North,0,0.0,0.0,62,0.00,CLR,,0.00,WeatherDisplay:10.37,2013-08-06 15:05:00,
2013-08-06 10:10:00,85.5,70.5,29.67,North,0,0.0,0.0,61,0.00,CLR,,0.00,WeatherDisplay:10.37,2013-08-06 15:10:00,
2013-08-06 10:15:00,86.0,70.5,29.67,North,0,0.0,0.0,60,0.00,CLR,,0.00,WeatherDisplay:10.37,2013-08-06 15:15:00,
2013-08-06 10:20:00,86.2,70.7,29.67,North,0,0.0,0.0,60,0.00,CLR,,0.00,WeatherDisplay:10.37,2013-08-06 15:20:00,
2013-08-06 10:25:00,86.5,70.5,29.67,North,0,0.0,0.0,59,0.00,CLR,,0.00,WeatherDisplay:10.37,2013-08-06 15:25:00,
2013-08-06 10:30:00,86.9,70.3,29.66,North,0,0.0,0.0,58,0.00,CLR,,0.00,WeatherDisplay:10.37,2013-08-06 15:30:00,
2013-08-06 10:35:00,87.1,70.5,29.66,North,0,0.0,0.0,58,0.00,CLR,,0.00,WeatherDisplay:10.37,2013-08-06 15:35:00,
2013-08-06 10:40:00,87.4,71.3,29.66,North,0,0.0,0.0,59,0.00,CLR,,0.00,WeatherDisplay:10.37,2013-08-06 15:40:00,
2013-08-06 10:45:00,88.0,70.3,29.66,North,0,0.0,0.0,56,0.00,CLR,,0.00,WeatherDisplay:10.37,2013-08-06 15:45:00,
2013-08-06 10:50:00,88.2,70.0,29.66,North,0,0.0,0.0,55,0.00,CLR,,0.00,WeatherDisplay:10.37,2013-08-06 15:50:00,
2013-08-06 10:55:00,88.5,69.8,29.66,North,0,0.0,0.0,54,0.00,CLR,,0.00,WeatherDisplay:10.37,2013-08-06 15:55:00,
2013-08-06 11:00:00,88.9,70.6,29.66,North,0,0.0,0.0,55,0.00,CLR,,0.00,WeatherDisplay:10.37,2013-08-06 16:00:00,
2013-08-06 11:05:00,89.2,69.9,29.66,North,0,0.0,0.0,53,0.00,CLR,,0.00,WeatherDisplay:10.37,2013-08-06 16:05:00,
2013-08-06 11:10:00,89.4,70.0,29.66,North,0,0.0,0.0,53,0.00,CLR,,0.00,WeatherDisplay:10.37,2013-08-06 16:10:00,
2013-08-06 11:15:00,89.8,70.4,29.66,North,0,0.0,0.0,53,0.00,CLR,,0.00,WeatherDisplay:10.37,2013-08-06 16:15:00,
2013-08-06 11:20:00,90.1,70.1,29.66,North,0,0.0,0.0,52,0.00,CLR,,0.00,WeatherDisplay:10.37,2013-08-06 16:20:00,
2013-08-06 11:25:00,90.3,69.7,29.66,North,0,0.0,0.0,51,0.00,CLR,,0.00,WeatherDisplay:10.37,2013-08-06 16:25:00,
2013-08-06 11:30:00,90.7,69.5,29.65,North,0,0.0,0.0,50,0.00,CLR,,0.00,WeatherDisplay:10.37,2013-08-06 16:30:00,
2013-08-06 11:35:00,91.0,70.4,29.65,North,0,0.0,0.0,51,0.00,CLR,,0.00,WeatherDisplay:10.37,2013-08-06 16:35:00,
2013-08-06 11:40:00,91.4,70.1,29.65,North,0,0.0,0.0,50,0.00,CLR,,0.00,WeatherDisplay:10.37,2013-08-06 16:40:00,
2013-08-06 11:45:00,91.6,70.3,29.65,North,0,0.0,0.0,50,0.00,CLR,,0.00,WeatherDisplay:10.37,2013-08-06 16:45:00,
2013-08-06 11:50:00,91.9,70.6,29.65,North,0,0.0,0.0,50,0.00,CLR,,0.00,WeatherDisplay:10.37,2013-08-06 16:50:00,
2013-08-06 11:55:00,92.1,70.2,29.65,North,0,0.0,0.0,49,0.00,CLR,,0.00,WeatherDisplay:10.37,2013-08-06 16:55:00,
2013-08-06 12:00:00,92.5,70.5,29.65,North,0,0.0,0.0,49,0.00,CLR,,0.00,WeatherDisplay:10.37,2013-08-06 17:00:00,
2013-08-06 12:05:00,92.8,70.9,29.65,North,0,0.0,0.0,49,0.00,CLR,,0.00,WeatherDisplay:10.37,2013-08-06 17:05:00,
2013-08-06 12:10:00,93.2,70.6,29.65,North,0,0.0,0.0,48,0.00,CLR,,0.00,WeatherDisplay:10.37,2013-08-06 17:10:00,
2013-08-06 12:15:00,93.4,70.8,29.65,North,0,0.0,0.0,48,0.00,CLR,,0.00,WeatherDisplay:10.37,2013-08-06 17:15:00,
2013-08-06 12:20:00,93.6,71.5,29.65,North,0,0.0,0.0,49,0.00,CLR,,0.00,WeatherDisplay:10.37,2013-08-06 17:20:00,
2013-08-06 12:25:00,93.7,70.5,29.65,North,0,0.0,0.0,47,0.00,CLR,,0.00,WeatherDisplay:10.37,2013-08-06 17:25:00,
2013-08-06 12:27:00,93.9,70.6,29.64,North,0,0.0,0.0,47,0.00,CLR,,0.00,WeatherDisplay:10.37,2013-08-06 17:27:00,
2013-08-06 12:32:00,94.3,71.0,29.65,North,0,0.0,0.0,47,0.00,CLR,,0.00,WeatherDisplay:10.37,2013-08-06 17:32:00,
2013-08-06 12:37:00,94.5,70.5,29.64,North,0,0.0,0.0,46,0.00,CLR,,0.00,WeatherDisplay:10.37,2013-08-06 17:37:00,
2013-08-06 12:42:00,94.8,70.2,29.64,North,0,0.0,0.0,45,0.00,CLR,,0.00,WeatherDisplay:10.37,2013-08-06 17:42:00,
2013-08-06 12:47:00,95.0,71.0,29.64,North,0,0.0,0.0,46,0.00,CLR,,0.00,WeatherDisplay:10.37,2013-08-06 17:47:00,
2013-08-06 12:52:00,95.4,70.7,29.64,North,0,0.0,0.0,45,0.00,CLR,,0.00,WeatherDisplay:10.37,2013-08-06 17:52:00,
2013-08-06 12:57:00,95.7,70.3,29.64,North,0,0.0,0.0,44,0.00,CLR,,0.00,WeatherDisplay:10.37,2013-08-06 17:57:00,
2013-08-06 13:02:00,95.7,70.3,29.64,North,0,0.0,0.0,44,0.00,CLR,,0.00,WeatherDisplay:10.37,2013-08-06 18:02:00,
2013-08-06 13:07:00,96.1,70.0,29.64,North,0,0.0,0.0,43,0.00,CLR,,0.00,WeatherDisplay:10.37,2013-08-06 18:07:00,
2013-08-06 13:12:00,96.3,70.8,29.63,North,0,0.0,0.0,44,0.00,CLR,,0.00,WeatherDisplay:10.37,2013-08-06 18:12:00,
2013-08-06 13:17:00,96.4,70.3,29.63,North,0,0.0,0.0,43,0.00,CLR,,0.00,WeatherDisplay:10.37,2013-08-06 18:17:00,
2013-08-06 13:22:00,96.6,70.5,29.63,North,0,0.0,0.0,43,0.00,CLR,,0.00,WeatherDisplay:10.37,2013-08-06 18:22:00,
2013-08-06 13:27:00,96.8,70.6,29.63,North,0,0.0,0.0,43,0.00,CLR,,0.00,WeatherDisplay:10.37,2013-08-06 18:27:00,
2013-08-06 13:32:00,97.2,70.2,29.62,North,0,0.0,0.0,42,0.00,CLR,,0.00,WeatherDisplay:10.37,2013-08-06 18:32:00,
2013-08-06 13:37:00,97.5,70.6,29.62,North,0,0.0,0.0,42,0.00,CLR,,0.00,WeatherDisplay:10.37,2013-08-06 18:37:00,
2013-08-06 13:42:00,97.5,71.3,29.62,North,0,0.0,0.0,43,0.00,CLR,,0.00,WeatherDisplay:10.37,2013-08-06 18:42:00,
2013-08-06 13:47:00,97.9,70.9,29.62,North,0,0.0,0.0,42,0.00,CLR,,0.00,WeatherDisplay:10.37,2013-08-06 18:47:00,
2013-08-06 13:52:00,97.9,70.9,29.62,North,0,0.0,0.0,42,0.00,CLR,,0.00,WeatherDisplay:10.37,2013-08-06 18:52:00,
2013-08-06 13:57:00,98.1,70.3,29.61,North,0,0.0,0.0,41,0.00,CLR,,0.00,WeatherDisplay:10.37,2013-08-06 18:57:00,
2013-08-06 14:02:00,98.2,69.8,29.61,North,0,0.0,0.0,40,0.00,CLR,,0.00,WeatherDisplay:10.37,2013-08-06 19:02:00,
2013-08-06 14:07:00,98.4,69.9,29.61,North,0,0.0,0.0,40,0.00,CLR,,0.00,WeatherDisplay:10.37,2013-08-06 19:07:00,
2013-08-06 14:12:00,98.6,70.1,29.61,North,0,0.0,0.0,40,0.00,CLR,,0.00,WeatherDisplay:10.37,2013-08-06 19:12:00,
2013-08-06 14:17:00,98.8,70.3,29.61,North,0,0.0,0.0,40,0.00,CLR,,0.00,WeatherDisplay:10.37,2013-08-06 19:17:00,
2013-08-06 14:22:00,99.0,70.4,29.61,North,0,0.0,0.0,40,0.00,CLR,,0.00,WeatherDisplay:10.37,2013-08-06 19:22:00,
2013-08-06 14:27:00,99.1,69.8,29.61,North,0,0.0,0.0,39,0.00,CLR,,0.00,WeatherDisplay:10.37,2013-08-06 19:27:00,
2013-08-06 14:32:00,99.3,70.7,29.61,North,0,0.0,0.0,40,0.00,CLR,,0.00,WeatherDisplay:10.37,2013-08-06 19:32:00,
2013-08-06 14:37:00,99.3,70.0,29.61,North,0,0.0,0.0,39,0.00,CLR,,0.00,WeatherDisplay:10.37,2013-08-06 19:37:00,
2013-08-06 14:42:00,99.3,69.2,29.61,North,0,0.0,0.0,38,0.00,CLR,,0.00,WeatherDisplay:10.37,2013-08-06 19:42:00,
2013-08-06 14:47:00,99.7,69.6,29.61,North,0,0.0,0.0,38,0.00,CLR,,0.00,WeatherDisplay:10.37,2013-08-06 19:47:00,
2013-08-06 14:52:00,99.9,70.5,29.60,North,0,0.0,0.0,39,0.00,CLR,,0.00,WeatherDisplay:10.37,2013-08-06 19:52:00,
2013-08-06 14:57:00,100.0,69.9,29.60,North,0,0.0,0.0,38,0.00,CLR,,0.00,WeatherDisplay:10.37,2013-08-06 19:57:00,
2013-08-06 15:02:00,100.0,69.9,29.60,North,0,0.0,0.0,38,0.00,CLR,,0.00,WeatherDisplay:10.37,2013-08-06 20:02:00,
2013-08-06 15:07:00,100.4,70.2,29.60,North,0,0.0,0.0,38,0.00,CLR,,0.00,WeatherDisplay:10.37,2013-08-06 20:07:00,
2013-08-06 15:08:00,100.4,71.0,29.60,North,0,0.0,0.0,39,0.00,CLR,,0.00,WeatherDisplay:10.37,2013-08-06 20:08:00,
2013-08-06 15:13:00,100.6,70.3,29.60,North,0,0.0,0.0,38,0.00,CLR,,0.00,WeatherDisplay:10.37,2013-08-06 20:13:00,
2013-08-06 15:18:00,100.6,69.6,29.59,North,0,0.0,0.0,37,0.00,CLR,,0.00,WeatherDisplay:10.37,2013-08-06 20:18:00,
2013-08-06 15:23:00,100.4,68.6,29.59,North,0,0.0,0.0,36,0.00,CLR,,0.00,WeatherDisplay:10.37,2013-08-06 20:23:00,
2013-08-06 15:28:00,100.4,70.2,29.59,North,0,0.0,0.0,38,0.00,CLR,,0.00,WeatherDisplay:10.37,2013-08-06 20:28:00,
2013-08-06 15:32:00,100.8,70.5,29.59,North,0,0.0,0.0,38,0.00,CLR,,0.00,WeatherDisplay:10.37,2013-08-06 20:32:00,
2013-08-06 15:37:00,100.9,68.3,29.59,North,0,0.0,0.0,35,0.00,CLR,,0.00,WeatherDisplay:10.37,2013-08-06 20:37:00,
2013-08-06 15:42:00,100.9,69.1,29.59,North,0,0.0,0.0,36,0.00,CLR,,0.00,WeatherDisplay:10.37,2013-08-06 20:42:00,
2013-08-06 15:47:00,101.3,69.4,29.59,North,0,0.0,0.0,36,0.00,CLR,,0.00,WeatherDisplay:10.37,2013-08-06 20:47:00,
2013-08-06 15:52:00,101.3,69.4,29.59,North,0,0.0,0.0,36,0.00,CLR,,0.00,WeatherDisplay:10.37,2013-08-06 20:52:00,
2013-08-06 15:57:00,101.5,69.6,29.59,North,0,0.0,0.0,36,0.00,CLR,,0.00,WeatherDisplay:10.37,2013-08-06 20:57:00,
2013-08-06 16:02:00,101.5,68.7,29.59,North,0,0.0,0.0,35,0.00,CLR,,0.00,WeatherDisplay:10.37,2013-08-06 21:02:00,
2013-08-06 16:07:00,101.3,69.4,29.59,North,0,0.0,0.0,36,0.00,CLR,,0.00,WeatherDisplay:10.37,2013-08-06 21:07:00,
2013-08-06 16:12:00,101.8,69.0,29.59,North,0,0.0,0.0,35,0.00,CLR,,0.00,WeatherDisplay:10.37,2013-08-06 21:12:00,
2013-08-06 16:17:00,102.0,69.2,29.58,North,0,0.0,0.0,35,0.00,CLR,,0.00,WeatherDisplay:10.37,2013-08-06 21:17:00,
2013-08-06 16:22:00,101.8,69.0,29.58,North,0,0.0,0.0,35,0.00,CLR,,0.00,WeatherDisplay:10.37,2013-08-06 21:22:00,
2013-08-06 16:27:00,102.2,69.4,29.58,North,0,0.0,0.0,35,0.00,CLR,,0.00,WeatherDisplay:10.37,2013-08-06 21:27:00,
2013-08-06 16:32:00,102.4,68.7,29.58,North,0,0.0,0.0,34,0.00,CLR,,0.00,WeatherDisplay:10.37,2013-08-06 21:32:00,
2013-08-06 16:37:00,102.4,68.7,29.59,North,0,0.0,0.0,34,0.00,CLR,,0.00,WeatherDisplay:10.37,2013-08-06 21:37:00,
2013-08-06 16:42:00,102.6,68.8,29.59,North,0,0.0,0.0,34,0.00,CLR,,0.00,WeatherDisplay:10.37,2013-08-06 21:42:00,
2013-08-06 16:47:00,102.4,68.7,29.58,North,0,0.0,0.0,34,0.00,CLR,,0.00,WeatherDisplay:10.37,2013-08-06 21:47:00,
2013-08-06 16:52:00,102.6,68.8,29.58,North,0,0.0,0.0,34,0.00,CLR,,0.00,WeatherDisplay:10.37,2013-08-06 21:52:00,
2013-08-06 16:57:00,102.6,68.0,29.58,North,0,0.0,0.0,33,0.00,CLR,,0.00,WeatherDisplay:10.37,2013-08-06 21:57:00,
2013-08-06 17:02:00,102.4,68.7,29.57,North,0,0.0,0.0,34,0.00,CLR,,0.00,WeatherDisplay:10.37,2013-08-06 22:02:00,
2013-08-06 17:07:00,102.4,68.7,29.58,North,0,0.0,0.0,34,0.00,CLR,,0.00,WeatherDisplay:10.37,2013-08-06 22:07:00,
2013-08-06 17:12:00,102.7,68.1,29.57,North,0,0.0,0.0,33,0.00,CLR,,0.00,WeatherDisplay:10.37,2013-08-06 22:12:00,
2013-08-06 17:17:00,103.1,68.4,29.57,North,0,0.0,0.0,33,0.00,CLR,,0.00,WeatherDisplay:10.37,2013-08-06 22:17:00,
2013-08-06 17:22:00,102.9,68.3,29.57,North,0,0.0,0.0,33,0.00,CLR,,0.00,WeatherDisplay:10.37,2013-08-06 22:22:00,
2013-08-06 17:27:00,103.1,68.4,29.57,North,0,0.0,0.0,33,0.00,CLR,,0.00,WeatherDisplay:10.37,2013-08-06 22:27:00,
2013-08-06 17:32:00,103.3,68.6,29.56,North,0,0.0,0.0,33,0.00,CLR,,0.00,WeatherDisplay:10.37,2013-08-06 22:32:00,
2013-08-06 17:37:00,102.9,68.3,29.56,North,0,0.0,0.0,33,0.00,CLR,,0.00,WeatherDisplay:10.37,2013-08-06 22:37:00,
2013-08-06 17:42:00,103.1,68.4,29.56,North,0,0.0,0.0,33,0.00,CLR,,0.00,WeatherDisplay:10.37,2013-08-06 22:42:00,
2013-08-06 17:47:00,103.1,67.5,29.56,North,0,0.0,0.0,32,0.00,CLR,,0.00,WeatherDisplay:10.37,2013-08-06 22:47:00,
2013-08-06 17:52:00,103.1,67.5,29.56,North,0,0.0,0.0,32,0.00,CLR,,0.00,WeatherDisplay:10.37,2013-08-06 22:52:00,
2013-08-06 17:57:00,103.1,66.6,29.56,North,0,0.0,0.0,31,0.00,CLR,,0.00,WeatherDisplay:10.37,2013-08-06 22:57:00,
2013-08-06 18:02:00,103.3,67.7,29.56,North,0,0.0,0.0,32,0.00,CLR,,0.00,WeatherDisplay:10.37,2013-08-06 23:02:00,
2013-08-06 18:07:00,103.5,67.8,29.56,North,0,0.0,0.0,32,0.00,CLR,,0.00,WeatherDisplay:10.37,2013-08-06 23:07:00,
2013-08-06 18:12:00,103.5,66.9,29.56,North,0,0.0,0.0,31,0.00,CLR,,0.00,WeatherDisplay:10.37,2013-08-06 23:12:00,
2013-08-06 18:17:00,103.1,66.6,29.55,North,0,0.0,0.0,31,0.00,CLR,,0.00,WeatherDisplay:10.37,2013-08-06 23:17:00,
2013-08-06 18:22:00,103.3,66.8,29.56,North,0,0.0,0.0,31,0.00,CLR,,0.00,WeatherDisplay:10.37,2013-08-06 23:22:00,
2013-08-06 18:27:00,103.3,66.8,29.55,North,0,0.0,0.0,31,0.00,CLR,,0.00,WeatherDisplay:10.37,2013-08-06 23:27:00,
2013-08-06 18:32:00,103.3,67.7,29.55,North,0,0.0,0.0,32,0.00,CLR,,0.00,WeatherDisplay:10.37,2013-08-06 23:32:00,
2013-08-06 18:37:00,103.5,66.9,29.55,North,0,0.0,0.0,31,0.00,CLR,,0.00,WeatherDisplay:10.37,2013-08-06 23:37:00,
2013-08-06 18:42:00,103.5,66.9,29.54,North,0,0.0,0.0,31,0.00,CLR,,0.00,WeatherDisplay:10.37,2013-08-06 23:42:00,
2013-08-06 18:47:00,103.5,66.9,29.54,North,0,0.0,0.0,31,0.00,CLR,,0.00,WeatherDisplay:10.37,2013-08-06 23:47:00,
2013-08-06 18:52:00,103.3,66.8,29.54,North,0,0.0,0.0,31,0.00,CLR,,0.00,WeatherDisplay:10.37,2013-08-06 23:52:00,
2013-08-06 18:57:00,103.3,66.8,29.54,North,0,0.0,0.0,31,0.00,CLR,,0.00,WeatherDisplay:10.37,2013-08-06 23:57:00,
2013-08-06 19:02:00,103.3,66.8,29.54,North,0,0.0,0.0,31,0.00,CLR,,0.00,WeatherDisplay:10.37,2013-08-07 00:02:00,
2013-08-06 19:07:00,103.1,66.6,29.54,North,0,0.0,0.0,31,0.00,CLR,,0.00,WeatherDisplay:10.37,2013-08-07 00:07:00,
2013-08-06 19:13:00,102.7,66.3,29.54,North,0,0.0,0.0,31,0.00,CLR,,0.00,WeatherDisplay:10.37,2013-08-07 00:13:00,
2013-08-06 19:18:00,102.7,66.3,29.54,North,0,0.0,0.0,31,0.00,CLR,,0.00,WeatherDisplay:10.37,2013-08-07 00:18:00,
2013-08-06 19:23:00,102.7,65.4,29.54,North,0,0.0,0.0,30,0.00,CLR,,0.00,WeatherDisplay:10.37,2013-08-07 00:23:00,
2013-08-06 19:28:00,102.6,66.1,29.54,North,0,0.0,0.0,31,0.00,CLR,,0.00,WeatherDisplay:10.37,2013-08-07 00:28:00,
2013-08-06 19:33:00,102.4,66.0,29.54,North,0,0.0,0.0,31,0.00,CLR,,0.00,WeatherDisplay:10.37,2013-08-07 00:33:00,
2013-08-06 19:38:00,102.2,65.8,29.54,North,0,0.0,0.0,31,0.00,CLR,,0.00,WeatherDisplay:10.37,2013-08-07 00:38:00,
2013-08-06 19:43:00,102.2,66.8,29.54,North,0,0.0,0.0,32,0.00,CLR,,0.00,WeatherDisplay:10.37,2013-08-07 00:43:00,
2013-08-06 19:48:00,102.0,66.6,29.54,North,0,0.0,0.0,32,0.00,CLR,,0.00,WeatherDisplay:10.37,2013-08-07 00:48:00,
2013-08-06 19:53:00,101.8,67.3,29.54,North,0,0.0,0.0,33,0.00,CLR,,0.00,WeatherDisplay:10.37,2013-08-07 00:53:00,
2013-08-06 19:58:00,101.5,67.0,29.54,North,0,0.0,0.0,33,0.00,CLR,,0.00,WeatherDisplay:10.37,2013-08-07 00:58:00,
2013-08-06 20:03:00,101.3,66.9,29.55,North,0,0.0,0.0,33,0.00,CLR,,0.00,WeatherDisplay:10.37,2013-08-07 01:03:00,
2013-08-06 20:08:00,100.9,67.4,29.55,North,0,0.0,0.0,34,0.00,CLR,,0.00,WeatherDisplay:10.37,2013-08-07 01:08:00,
2013-08-06 20:13:00,100.4,66.9,29.55,North,0,0.0,0.0,34,0.00,CLR,,0.00,WeatherDisplay:10.37,2013-08-07 01:13:00,
2013-08-06 20:18:00,100.0,67.5,29.55,North,0,0.0,0.0,35,0.00,CLR,,0.00,WeatherDisplay:10.37,2013-08-07 01:18:00,
2013-08-06 20:23:00,99.7,67.2,29.55,North,0,0.0,0.0,35,0.00,CLR,,0.00,WeatherDisplay:10.37,2013-08-07 01:23:00,
2013-08-06 20:28:00,99.3,66.8,29.55,North,0,0.0,0.0,35,0.00,CLR,,0.00,WeatherDisplay:10.37,2013-08-07 01:28:00,
2013-08-06 20:33:00,98.8,67.2,29.55,North,0,0.0,0.0,36,0.00,CLR,,0.00,WeatherDisplay:10.37,2013-08-07 01:33:00,
2013-08-06 20:38:00,98.2,66.7,29.55,North,0,0.0,0.0,36,0.00,CLR,,0.00,WeatherDisplay:10.37,2013-08-07 01:38:00,
2013-08-06 20:43:00,97.9,66.4,29.55,North,0,0.0,0.0,36,0.00,CLR,,0.00,WeatherDisplay:10.37,2013-08-07 01:43:00,
2013-08-06 20:48:00,97.3,67.5,29.55,North,0,0.0,0.0,38,0.00,CLR,,0.00,WeatherDisplay:10.37,2013-08-07 01:48:00,
2013-08-06 20:53:00,96.8,67.0,29.55,North,0,0.0,0.0,38,0.00,CLR,,0.00,WeatherDisplay:10.37,2013-08-07 01:53:00,
2013-08-06 20:58:00,96.4,66.7,29.55,North,0,0.0,0.0,38,0.00,CLR,,0.00,WeatherDisplay:10.37,2013-08-07 01:58:00,
2013-08-06 21:03:00,96.1,66.4,29.56,North,0,0.0,0.0,38,0.00,CLR,,0.00,WeatherDisplay:10.37,2013-08-07 02:03:00,
2013-08-06 21:08:00,95.9,67.0,29.56,North,0,0.0,0.0,39,0.00,CLR,,0.00,WeatherDisplay:10.37,2013-08-07 02:08:00,
2013-08-06 21:13:00,95.7,66.8,29.56,North,0,0.0,0.0,39,0.00,CLR,,0.00,WeatherDisplay:10.37,2013-08-07 02:13:00,
2013-08-06 21:18:00,95.4,66.5,29.57,North,0,0.0,0.0,39,0.00,CLR,,0.00,WeatherDisplay:10.37,2013-08-07 02:18:00,
2013-08-06 21:23:00,95.2,67.1,29.57,North,0,0.0,0.0,40,0.00,CLR,,0.00,WeatherDisplay:10.37,2013-08-07 02:23:00,
2013-08-06 21:28:00,94.8,66.7,29.56,North,0,0.0,0.0,40,0.00,CLR,,0.00,WeatherDisplay:10.37,2013-08-07 02:28:00,
2013-08-06 21:33:00,94.5,66.4,29.57,North,0,0.0,0.0,40,0.00,CLR,,0.00,WeatherDisplay:10.37,2013-08-07 02:33:00,
2013-08-06 21:38:00,94.1,66.1,29.57,North,0,0.0,0.0,40,0.00,CLR,,0.00,WeatherDisplay:10.37,2013-08-07 02:38:00,
2013-08-06 21:43:00,93.9,66.6,29.58,North,0,0.0,0.0,41,0.00,CLR,,0.00,WeatherDisplay:10.37,2013-08-07 02:43:00,
2013-08-06 21:48:00,93.7,66.5,29.58,North,0,0.0,0.0,41,0.00,CLR,,0.00,WeatherDisplay:10.37,2013-08-07 02:48:00,
2013-08-06 21:53:00,93.6,66.3,29.59,North,0,0.0,0.0,41,0.00,CLR,,0.00,WeatherDisplay:10.37,2013-08-07 02:53:00,
2013-08-06 21:58:00,93.6,66.3,29.58,North,0,0.0,0.0,41,0.00,CLR,,0.00,WeatherDisplay:10.37,2013-08-07 02:58:00,
2013-08-06 22:03:00,93.4,66.2,29.59,North,0,0.0,0.0,41,0.00,CLR,,0.00,WeatherDisplay:10.37,2013-08-07 03:03:00,
2013-08-06 22:08:00,93.2,66.7,29.59,North,0,0.0,0.0,42,0.00,CLR,,0.00,WeatherDisplay:10.37,2013-08-07 03:08:00,
2013-08-06 22:13:00,92.7,66.2,29.59,North,0,0.0,0.0,42,0.00,CLR,,0.00,WeatherDisplay:10.37,2013-08-07 03:13:00,
2013-08-06 22:18:00,92.3,66.6,29.59,North,0,0.0,0.0,43,0.00,CLR,,0.00,WeatherDisplay:10.37,2013-08-07 03:18:00,
2013-08-06 22:23:00,91.9,66.2,29.59,North,0,0.0,0.0,43,0.00,CLR,,0.00,WeatherDisplay:10.37,2013-08-07 03:23:00,
2013-08-06 22:28:00,91.8,66.7,29.59,North,0,0.0,0.0,44,0.00,CLR,,0.00,WeatherDisplay:10.37,2013-08-07 03:28:00,
2013-08-06 22:33:00,91.4,66.4,29.59,North,0,0.0,0.0,44,0.00,CLR,,0.00,WeatherDisplay:10.37,2013-08-07 03:33:00,
2013-08-06 22:38:00,91.2,66.3,29.60,North,0,0.0,0.0,44,0.00,CLR,,0.00,WeatherDisplay:10.37,2013-08-07 03:38:00,
2013-08-06 22:43:00,90.9,65.9,29.60,North,0,0.0,0.0,44,0.00,CLR,,0.00,WeatherDisplay:10.37,2013-08-07 03:43:00,
2013-08-06 22:48:00,90.9,66.6,29.60,North,0,0.0,0.0,45,0.00,CLR,,0.00,WeatherDisplay:10.37,2013-08-07 03:48:00,
2013-08-06 22:53:00,90.9,66.6,29.60,North,0,0.0,0.0,45,0.00,CLR,,0.00,WeatherDisplay:10.37,2013-08-07 03:53:00,
2013-08-06 22:58:00,90.9,66.6,29.60,North,0,0.0,0.0,45,0.00,CLR,,0.00,WeatherDisplay:10.37,2013-08-07 03:58:00,
2013-08-06 23:01:00,90.9,67.2,29.60,North,0,0.0,0.0,46,0.00,CLR,,0.00,WeatherDisplay:10.37,2013-08-07 04:01:00,
2013-08-06 23:02:00,90.9,66.6,29.60,North,0,0.0,0.0,45,0.00,CLR,,0.00,WeatherDisplay:10.37,2013-08-07 04:02:00,
2013-08-06 23:07:00,90.9,67.2,29.60,North,0,0.0,0.0,46,0.00,CLR,,0.00,WeatherDisplay:10.37,2013-08-07 04:07:00,
2013-08-06 23:12:00,90.7,67.1,29.60,North,0,0.0,0.0,46,0.00,CLR,,0.00,WeatherDisplay:10.37,2013-08-07 04:12:00,
2013-08-06 23:17:00,90.5,66.9,29.60,North,0,0.0,0.0,46,0.00,CLR,,0.00,WeatherDisplay:10.37,2013-08-07 04:17:00,
2013-08-06 23:22:00,90.3,66.7,29.60,North,0,0.0,0.0,46,0.00,CLR,,0.00,WeatherDisplay:10.37,2013-08-07 04:22:00,
2013-08-06 23:27:00,90.1,66.6,29.60,North,0,0.0,0.0,46,0.00,CLR,,0.00,WeatherDisplay:10.37,2013-08-07 04:27:00,
2013-08-06 23:32:00,90.0,66.4,29.60,North,0,0.0,0.0,46,0.00,CLR,,0.00,WeatherDisplay:10.37,2013-08-07 04:32:00,
2013-08-06 23:37:00,89.6,66.1,29.60,North,0,0.0,0.0,46,0.00,CLR,,0.00,WeatherDisplay:10.37,2013-08-07 04:37:00,
2013-08-06 23:42:00,89.4,65.9,29.59,North,0,0.0,0.0,46,0.00,CLR,,0.00,WeatherDisplay:10.37,2013-08-07 04:42:00,
2013-08-06 23:47:00,88.9,66.0,29.60,North,0,0.0,0.0,47,0.00,CLR,,0.00,WeatherDisplay:10.37,2013-08-07 04:47:00,
2013-08-06 23:52:00,88.5,65.7,29.60,North,0,0.0,0.0,47,0.00,CLR,,0.00,WeatherDisplay:10.37,2013-08-07 04:52:00,
2013-08-06 23:57:00,88.2,66.0,29.60,North,0,0.0,0.0,48,0.00,CLR,,0.00,WeatherDisplay:10.37,2013-08-07 04:57:00,